Rugby, ND

8:50 PM CST on December 07, 2019 (GMT -0600)
Rugby Municipal

Weather History for KRUG - November, 2019

Change the Weather History Date:

Tuesday, November 12, 2019

  Actual Average Record
Temperature  
Mean Temperature 12 °F -  
Max Temperature 24 °F 33 °F 66 °F (1981)
Min Temperature 0 °F 16 °F -7 °F (1986)
Degree Days  
Heating Degree Days 53    
Moisture  
Dew Point 9 °F    
Average Humidity 81    
Maximum Humidity 100    
Minimum Humidity 68    
Precipitation  
Precipitation 0.00 in - - ()
Sea Level Pressure  
Sea Level Pressure 29.93 in    
Wind  
Wind Speed 10 mph (SSW)    
Max Wind Speed 18 mph    
Max Gust Speed 29 mph    
Visibility 10 miles    
Events      
Averages and records for this station are not official NWS values.
T = Trace of Precipitation, MM = Missing Value Source: NWS Daily Summary

Daily Weather History Graph

Daily Weather History Graph

Search for Another Location

Airport or City:

Astronomy

Nov. 12, 2019 Rise Set
Actual Time 7:42 AM CST 5:05 PM CST
Civil Twilight 7:08 AM CST 5:38 PM CST
Nautical Twilight 6:31 AM CST 6:16 PM CST
Astronomical Twilight 5:54 AM CST 6:53 PM CST
Moon 5:35 PM CST (11/12) 7:32 AM CST (11/12)
Length of Visible Light 10h 29m
Length of Day
9h 22m
Full, 100% of the Moon is Illuminated
Nov 12
Full
Nov 19
Last Quarter
Nov 26
New
Dec 4
First Quarter
Dec 11
Full

Hourly Weather History & Observations

Time (CST) Temp. Windchill Dew Point Humidity Pressure Visibility Wind Dir Wind Speed Gust Speed Precip Events Conditions
12:15 AM -0.4 °F -15.7 °F -4.0 °F 85% 30.36 in 10.0 mi South 9.2 mph - N/A   Unknown
12:35 AM -0.4 °F -16.7 °F -4.0 °F 85% 30.35 in 10.0 mi South 10.4 mph - N/A   Clear
12:55 AM -0.4 °F -16.7 °F -4.0 °F 85% 30.33 in 10.0 mi South 10.4 mph - N/A   Clear
1:15 AM -0.4 °F -16.7 °F -4.0 °F 85% 30.32 in 10.0 mi South 10.4 mph - N/A   Clear
1:35 AM -0.4 °F -16.7 °F -5.8 °F 78% 30.30 in 10.0 mi SSE 10.4 mph - N/A   Clear
1:55 AM -0.4 °F -15.7 °F -5.8 °F 78% 30.29 in 10.0 mi SSE 9.2 mph - N/A   Clear
2:15 AM -0.4 °F -15.7 °F -5.8 °F 78% 30.28 in 10.0 mi SSE 9.2 mph - N/A   Clear
2:35 AM -0.4 °F -17.6 °F -4.0 °F 85% 30.27 in 10.0 mi South 11.5 mph - N/A   Clear
2:55 AM -0.4 °F -16.7 °F -4.0 °F 85% 30.26 in 10.0 mi South 10.4 mph - N/A   Clear
3:15 AM -0.4 °F -17.6 °F -4.0 °F 85% 30.24 in 10.0 mi SSE 11.5 mph - N/A   Clear
3:35 AM 1.4 °F -15.3 °F -4.0 °F 78% 30.22 in 10.0 mi SSE 11.5 mph - N/A   Clear
3:55 AM 1.4 °F -14.5 °F -2.2 °F 85% 30.20 in 10.0 mi South 10.4 mph - N/A   Clear
4:15 AM 3.2 °F -13.9 °F -2.2 °F 78% 30.17 in 10.0 mi SSE 12.7 mph - N/A   Clear
4:35 AM 3.2 °F -13.1 °F -2.2 °F 78% 30.15 in 10.0 mi South 11.5 mph 17.3 mph N/A   Clear
4:55 AM 3.2 °F -13.1 °F -0.4 °F 85% 30.13 in 10.0 mi SSE 11.5 mph - N/A   Clear
5:15 AM 5.0 °F -10.8 °F -0.4 °F 78% 30.11 in 10.0 mi South 11.5 mph - N/A   Clear
5:35 AM 5.0 °F -13.0 °F 1.4 °F 85% 30.09 in 10.0 mi SSE 15.0 mph - N/A   Clear
5:55 AM 5.0 °F -13.0 °F 1.4 °F 85% 30.07 in 10.0 mi SSE 15.0 mph - N/A   Clear
6:15 AM 5.0 °F -10.8 °F 1.4 °F 85% 30.07 in 10.0 mi SSE 11.5 mph 18.4 mph N/A   Clear
6:35 AM 6.8 °F -10.7 °F 3.2 °F 85% 30.05 in 10.0 mi South 15.0 mph - N/A   Unknown
6:55 AM 6.8 °F -10.0 °F 3.2 °F 85% 30.03 in 10.0 mi SSE 13.8 mph - N/A   Clear
7:15 AM 6.8 °F -9.3 °F 3.2 °F 85% 30.01 in 10.0 mi SSE 12.7 mph 18.4 mph N/A   Clear
7:35 AM 6.8 °F -10.0 °F 3.2 °F 85% 30.00 in 10.0 mi SSE 13.8 mph - N/A   Clear
7:55 AM 6.8 °F -10.0 °F 3.2 °F 85% 29.97 in 10.0 mi SSE 13.8 mph - N/A   Clear
8:15 AM 6.8 °F -9.3 °F 3.2 °F 85% 29.96 in 10.0 mi SSE 12.7 mph 19.6 mph N/A   Clear
8:35 AM 8.6 °F -5.5 °F 5.0 °F 85% 29.97 in 10.0 mi SSE 10.4 mph - N/A   Clear
8:55 AM 10.4 °F -1.5 °F 6.8 °F 85% 29.95 in 10.0 mi South 8.1 mph - N/A   Clear
9:15 AM 12.2 °F -2.5 °F 6.8 °F 79% 29.93 in 10.0 mi South 12.7 mph 18.4 mph N/A   Clear
9:35 AM 14.0 °F -1.4 °F 8.6 °F 79% 29.92 in 10.0 mi South 15.0 mph 20.7 mph N/A   Clear
9:55 AM 14.0 °F -3.0 °F 8.6 °F 79% 29.90 in 10.0 mi South 18.4 mph 28.8 mph N/A   Clear
10:15 AM 14.0 °F -0.8 °F 8.6 °F 79% 29.90 in 10.0 mi South 13.8 mph 19.6 mph N/A   Clear
10:35 AM 14.0 °F -0.8 °F 8.6 °F 79% 29.89 in 10.0 mi SSW 13.8 mph 25.3 mph N/A   Clear
10:55 AM 15.8 °F -0.6 °F 8.6 °F 73% 29.89 in 10.0 mi SSW 18.4 mph - N/A   Clear
11:15 AM 15.8 °F -0.2 °F 8.6 °F 73% 29.90 in 10.0 mi SSW 17.3 mph - N/A   Clear
11:35 AM 15.8 °F 2.1 °F 8.6 °F 73% 29.89 in 10.0 mi SSW 12.7 mph - N/A   Clear
11:55 AM 15.8 °F 1.4 °F 10.4 °F 79% 29.87 in 10.0 mi SSW 13.8 mph - N/A   Clear
12:15 PM 17.6 °F 6.4 °F 10.4 °F 73% 29.86 in 10.0 mi South 9.2 mph 17.3 mph N/A   Clear
12:35 PM 17.6 °F 7.3 °F 10.4 °F 73% 29.85 in 10.0 mi South 8.1 mph - N/A   Clear
12:55 PM 17.6 °F 5.0 °F 10.4 °F 73% 29.84 in 10.0 mi South 11.5 mph - N/A   Clear
1:15 PM 17.6 °F 5.7 °F 10.4 °F 73% 29.83 in 10.0 mi South 10.4 mph - N/A   Clear
1:35 PM 19.4 °F 7.9 °F 12.2 °F 74% 29.82 in 10.0 mi SSW 10.4 mph - N/A   Clear
1:55 PM 19.4 °F 10.4 °F 12.2 °F 74% 29.82 in 10.0 mi South 6.9 mph - N/A   Clear
2:15 PM 19.4 °F 8.6 °F 12.2 °F 74% 29.80 in 10.0 mi South 9.2 mph - N/A   Clear
2:35 PM 19.4 °F 8.6 °F 12.2 °F 74% 29.78 in 10.0 mi South 9.2 mph - N/A   Clear
2:55 PM 19.4 °F 7.9 °F 12.2 °F 74% 29.79 in 10.0 mi SSW 10.4 mph - N/A   Clear
3:15 PM 21.2 °F 11.7 °F 12.2 °F 68% 29.79 in 10.0 mi SW 8.1 mph - N/A   Clear
3:35 PM 21.2 °F 10.9 °F 12.2 °F 68% 29.79 in 10.0 mi SW 9.2 mph - N/A   Clear
3:55 PM 21.2 °F 10.1 °F 14.0 °F 74% 29.78 in 10.0 mi SSW 10.4 mph - N/A   Clear
4:15 PM 21.2 °F 10.9 °F 14.0 °F 74% 29.78 in 10.0 mi SSW 9.2 mph - N/A   Clear
4:35 PM 21.2 °F 11.7 °F 14.0 °F 74% 29.77 in 10.0 mi South 8.1 mph - N/A   Clear
4:55 PM 21.2 °F 11.7 °F 14.0 °F 74% 29.77 in 10.0 mi SSW 8.1 mph - N/A   Clear
5:15 PM 21.2 °F 14.9 °F 14.0 °F 74% 29.77 in 10.0 mi SSW 4.6 mph - N/A   Mostly Cloudy
5:35 PM 21.2 °F 14.9 °F 15.8 °F 80% 29.78 in 10.0 mi SSW 4.6 mph - N/A   Overcast
5:55 PM 21.2 °F 13.6 °F 15.8 °F 80% 29.77 in 10.0 mi SSW 5.8 mph - N/A   Overcast
6:15 PM 21.2 °F 14.9 °F 15.8 °F 80% 29.76 in 10.0 mi South 4.6 mph - N/A   Mostly Cloudy
6:35 PM 21.2 °F 13.6 °F 15.8 °F 80% 29.76 in 10.0 mi South 5.8 mph - N/A   Overcast
6:55 PM 21.2 °F 13.6 °F 17.6 °F 86% 29.76 in 10.0 mi South 5.8 mph - N/A   Overcast
7:15 PM 23.0 °F 14.7 °F 17.6 °F 80% 29.75 in 10.0 mi South 6.9 mph - N/A   Overcast
7:35 PM 23.0 °F 15.8 °F 17.6 °F 80% 29.75 in 10.0 mi SSW 5.8 mph - N/A   Overcast
7:55 PM 23.0 °F 14.7 °F 17.6 °F 80% 29.75 in 10.0 mi SSW 6.9 mph - N/A   Overcast
8:15 PM 23.0 °F 14.7 °F 19.4 °F 86% 29.75 in 10.0 mi SW 6.9 mph - N/A   Overcast
8:35 PM 23.0 °F 14.7 °F 19.4 °F 86% 29.74 in 10.0 mi SW 6.9 mph - N/A   Overcast
8:55 PM 24.8 °F 16.9 °F 21.2 °F 86% 29.74 in 10.0 mi SW 6.9 mph - N/A   Mostly Cloudy
9:15 PM 24.8 °F 17.9 °F 21.2 °F 86% 29.75 in 10.0 mi West 5.8 mph - N/A   Overcast
9:35 PM 24.8 °F 17.9 °F 21.2 °F 86% 29.74 in 10.0 mi West 5.8 mph - N/A   Overcast
9:55 PM 24.8 °F 16.9 °F 21.2 °F 86% 29.74 in 10.0 mi West 6.9 mph - N/A   Overcast
10:15 PM 24.8 °F 16.1 °F 21.2 °F 86% 29.74 in 10.0 mi WNW 8.1 mph - N/A   Overcast
10:35 PM 24.8 °F 15.3 °F 23.0 °F 93% 29.74 in 5.0 mi WNW 9.2 mph - N/A   Overcast
10:55 PM 24.8 °F 16.9 °F 24.8 °F 100% 29.74 in 9.0 mi WNW 6.9 mph - N/A   Overcast
11:15 PM 24.8 °F 16.9 °F 24.8 °F 100% 29.74 in 9.0 mi WNW 6.9 mph - N/A   Overcast
11:35 PM 24.8 °F 16.9 °F 24.8 °F 100% 29.73 in 10.0 mi West 6.9 mph - N/A   Overcast
11:55 PM 24.8 °F 16.9 °F 24.8 °F 100% 29.73 in 10.0 mi West 6.9 mph - N/A   Overcast